owner,sensor,date,latitude,longitude,dew_point_temperature,qcFlag 
ADCP,ioos:station:wmo:42394:1,2017-05-01T00:30:00Z,28.1570,-89.2400,24.9,11111222 
ADCP,ioos:station:wmo:42394:1,2017-05-01T01:30:00Z,28.1570,-89.2400,24.9,11111222 
ADCP,ioos:station:wmo:42394:1,2017-05-01T02:30:00Z,28.1570,-89.2400,25.0,11111222 
ADCP,ioos:station:wmo:42394:1,2017-05-01T03:30:00Z,28.1570,-89.2400,25.1,11111222 
ADCP,ioos:station:wmo:42394:1,2017-05-01T04:30:00Z,28.1570,-89.2400,25.1,11111222 
ADCP,ioos:station:wmo:42394:1,2017-05-01T05:30:00Z,28.1570,-89.2400,22.8,11111222 
ADCP,ioos:station:wmo:42394:1,2017-05-01T06:30:00Z,28.1570,-89.2400,22.1,11111222 
ADCP,ioos:station:wmo:42394:1,2017-05-01T07:30:00Z,28.1570,-89.2400,21.0,11111222 
ADCP,ioos:station:wmo:42394:1,2017-05-01T08:30:00Z,28.1570,-89.2400,19.5,11111222 
ADCP,ioos:station:wmo:42394:1,2017-05-01T09:30:00Z,28.1570,-89.2400,16.4,11111222 
ADCP,ioos:station:wmo:42394:1,2017-05-01T10:30:00Z,28.1570,-89.2400,13.4,11111222 
ADCP,ioos:station:wmo:42394:1,2017-05-01T11:30:00Z,28.1570,-89.2400,13.5,11111222 
ADCP,ioos:station:wmo:42394:1,2017-05-01T12:30:00Z,28.1570,-89.2400,11.6,11111222 
ADCP,ioos:station:wmo:42394:1,2017-05-01T13:30:00Z,28.1570,-89.2400,11.8,11111222 
ADCP,ioos:station:wmo:42394:1,2017-05-01T14:30:00Z,28.1570,-89.2400,11.2,11111222 
ADCP,ioos:station:wmo:42394:1,2017-05-01T15:30:00Z,28.1570,-89.2400,11.2,11111222 
ADCP,ioos:station:wmo:42394:1,2017-05-01T16:30:00Z,28.1570,-89.2400,11.8,11111222 
ADCP,ioos:station:wmo:42394:1,2017-05-01T17:30:00Z,28.1570,-89.2400,11.6,11111222 
ADCP,ioos:station:wmo:42394:1,2017-05-01T18:30:00Z,28.1570,-89.2400,12.7,11111222 
ADCP,ioos:station:wmo:42394:1,2017-05-01T19:30:00Z,28.1570,-89.2400,11.2,11111222 
ADCP,ioos:station:wmo:42394:1,2017-05-01T20:30:00Z,28.1570,-89.2400,11.3,11111222 
ADCP,ioos:station:wmo:42394:1,2017-05-01T21:30:00Z,28.1570,-89.2400,11.1,11111222 
ADCP,ioos:station:wmo:42394:1,2017-05-01T22:30:00Z,28.1570,-89.2400,11.5,11111222 
ADCP,ioos:station:wmo:42394:1,2017-05-01T23:30:00Z,28.1570,-89.2400,11.8,11111222 
ADCP,ioos:station:wmo:42394:1,2017-05-02T00:30:00Z,28.1570,-89.2400,12.2,11111222 
ADCP,ioos:station:wmo:42394:1,2017-05-02T01:30:00Z,28.1570,-89.2400,13.3,11111222 
ADCP,ioos:station:wmo:42394:1,2017-05-02T02:30:00Z,28.1570,-89.2400,13.6,11111222 
ADCP,ioos:station:wmo:42394:1,2017-05-02T03:30:00Z,28.1570,-89.2400,12.5,11111222 
ADCP,ioos:station:wmo:42394:1,2017-05-02T04:30:00Z,28.1570,-89.2400,12.6,11111222 
ADCP,ioos:station:wmo:42394:1,2017-05-02T05:30:00Z,28.1570,-89.2400,13.2,11111222 
ADCP,ioos:station:wmo:42394:1,2017-05-02T06:30:00Z,28.1570,-89.2400,13.7,11111222 
ADCP,ioos:station:wmo:42394:1,2017-05-02T07:30:00Z,28.1570,-89.2400,15.4,11111222 
ADCP,ioos:station:wmo:42394:1,2017-05-02T08:30:00Z,28.1570,-89.2400,14.3,11111222 
ADCP,ioos:station:wmo:42394:1,2017-05-02T09:30:00Z,28.1570,-89.2400,14.6,11111222 
ADCP,ioos:station:wmo:42394:1,2017-05-02T10:30:00Z,28.1570,-89.2400,15.0,11111222 
ADCP,ioos:station:wmo:42394:1,2017-05-02T11:30:00Z,28.1570,-89.2400,15.0,11111222 
ADCP,ioos:station:wmo:42394:1,2017-05-02T12:30:00Z,28.1570,-89.2400,15.6,11111222 
ADCP,ioos:station:wmo:42394:1,2017-05-02T13:30:00Z,28.1570,-89.2400,15.6,11111222 
ADCP,ioos:station:wmo:42394:1,2017-05-02T14:30:00Z,28.1570,-89.2400,15.8,11111222 
ADCP,ioos:station:wmo:42394:1,2017-05-02T15:30:00Z,28.1570,-89.2400,15.6,11111222 
ADCP,ioos:station:wmo:42394:1,2017-05-02T16:30:00Z,28.1570,-89.2400,16.3,11111222 
ADCP,ioos:station:wmo:42394:1,2017-05-02T17:30:00Z,28.1570,-89.2400,15.1,11111222 
ADCP,ioos:station:wmo:42394:1,2017-05-02T18:30:00Z,28.1570,-89.2400,15.3,11111222 
ADCP,ioos:station:wmo:42394:1,2017-05-02T19:30:00Z,28.1570,-89.2400,14.7,11111222 
ADCP,ioos:station:wmo:42394:1,2017-05-02T20:30:00Z,28.1570,-89.2400,15.3,11111222 
ADCP,ioos:station:wmo:42394:1,2017-05-02T21:30:00Z,28.1570,-89.2400,15.1,11111222 
ADCP,ioos:station:wmo:42394:1,2017-05-02T22:30:00Z,28.1570,-89.2400,15.4,11111222 
ADCP,ioos:station:wmo:42394:1,2017-05-02T23:30:00Z,28.1570,-89.2400,15.2,11111222 
ADCP,ioos:station:wmo:42394:1,2017-05-03T00:30:00Z,28.1570,-89.2400,15.1,11111222 
ADCP,ioos:station:wmo:42394:1,2017-05-03T01:30:00Z,28.1570,-89.2400,16.0,11111222 
ADCP,ioos:station:wmo:42394:1,2017-05-03T02:30:00Z,28.1570,-89.2400,17.4,11111222 
ADCP,ioos:station:wmo:42394:1,2017-05-03T03:30:00Z,28.1570,-89.2400,18.2,11111222 
ADCP,ioos:station:wmo:42394:1,2017-05-03T04:30:00Z,28.1570,-89.2400,18.0,11111222 
ADCP,ioos:station:wmo:42394:1,2017-05-03T05:30:00Z,28.1570,-89.2400,18.7,11111222 
ADCP,ioos:station:wmo:42394:1,2017-05-03T06:30:00Z,28.1570,-89.2400,18.5,11111222 
ADCP,ioos:station:wmo:42394:1,2017-05-03T07:30:00Z,28.1570,-89.2400,18.0,11111222 
ADCP,ioos:station:wmo:42394:1,2017-05-03T08:30:00Z,28.1570,-89.2400,18.3,11111222 
ADCP,ioos:station:wmo:42394:1,2017-05-03T09:30:00Z,28.1570,-89.2400,18.9,11111222 
ADCP,ioos:station:wmo:42394:1,2017-05-03T10:30:00Z,28.1570,-89.2400,19.3,11111222 
ADCP,ioos:station:wmo:42394:1,2017-05-03T11:30:00Z,28.1570,-89.2400,19.6,11111222 
ADCP,ioos:station:wmo:42394:1,2017-05-03T12:30:00Z,28.1570,-89.2400,20.2,11111222 
ADCP,ioos:station:wmo:42394:1,2017-05-03T13:30:00Z,28.1570,-89.2400,19.9,11111222 
ADCP,ioos:station:wmo:42394:1,2017-05-03T14:30:00Z,28.1570,-89.2400,20.0,11111222 
ADCP,ioos:station:wmo:42394:1,2017-05-03T15:30:00Z,28.1570,-89.2400,19.8,11111222 
ADCP,ioos:station:wmo:42394:1,2017-05-03T16:30:00Z,28.1570,-89.2400,19.3,11111222 
ADCP,ioos:station:wmo:42394:1,2017-05-03T17:30:00Z,28.1570,-89.2400,19.7,11111222 
ADCP,ioos:station:wmo:42394:1,2017-05-03T18:30:00Z,28.1570,-89.2400,20.0,11111222 
ADCP,ioos:station:wmo:42394:1,2017-05-03T19:30:00Z,28.1570,-89.2400,20.1,11111222 
ADCP,ioos:station:wmo:42394:1,2017-05-03T20:30:00Z,28.1570,-89.2400,21.2,11111222 
ADCP,ioos:station:wmo:42394:1,2017-05-03T21:30:00Z,28.1570,-89.2400,21.7,11111222 
ADCP,ioos:station:wmo:42394:1,2017-05-03T22:30:00Z,28.1570,-89.2400,22.0,11111222 
ADCP,ioos:station:wmo:42394:1,2017-05-03T23:30:00Z,28.1570,-89.2400,17.8,11111222 
ADCP,ioos:station:wmo:42394:1,2017-05-04T00:30:00Z,28.1570,-89.2400,19.6,11111222 
ADCP,ioos:station:wmo:42394:1,2017-05-04T01:30:00Z,28.1570,-89.2400,20.3,11111222 
ADCP,ioos:station:wmo:42394:1,2017-05-04T02:30:00Z,28.1570,-89.2400,20.5,11111222 
ADCP,ioos:station:wmo:42394:1,2017-05-04T03:30:00Z,28.1570,-89.2400,20.7,11111222 
ADCP,ioos:station:wmo:42394:1,2017-05-04T04:30:00Z,28.1570,-89.2400,22.8,11111222 
ADCP,ioos:station:wmo:42394:1,2017-05-04T05:30:00Z,28.1570,-89.2400,23.5,11111222 
ADCP,ioos:station:wmo:42394:1,2017-05-04T06:30:00Z,28.1570,-89.2400,23.8,11111222 
ADCP,ioos:station:wmo:42394:1,2017-05-04T07:30:00Z,28.1570,-89.2400,23.9,11111222 
ADCP,ioos:station:wmo:42394:1,2017-05-04T08:30:00Z,28.1570,-89.2400,18.5,11111222 
ADCP,ioos:station:wmo:42394:1,2017-05-04T09:30:00Z,28.1570,-89.2400,18.6,11111222 
ADCP,ioos:station:wmo:42394:1,2017-05-04T10:30:00Z,28.1570,-89.2400,18.4,11111222 
ADCP,ioos:station:wmo:42394:1,2017-05-04T11:30:00Z,28.1570,-89.2400,18.8,11111222 
ADCP,ioos:station:wmo:42394:1,2017-05-04T12:30:00Z,28.1570,-89.2400,18.8,11111222 
ADCP,ioos:station:wmo:42394:1,2017-05-04T13:30:00Z,28.1570,-89.2400,17.4,11111222 
ADCP,ioos:station:wmo:42394:1,2017-05-04T14:30:00Z,28.1570,-89.2400,17.8,11111222 
ADCP,ioos:station:wmo:42394:1,2017-05-04T15:30:00Z,28.1570,-89.2400,17.7,11111222 
ADCP,ioos:station:wmo:42394:1,2017-05-04T16:30:00Z,28.1570,-89.2400,17.2,11111222 
ADCP,ioos:station:wmo:42394:1,2017-05-04T17:30:00Z,28.1570,-89.2400,17.0,11111222 
ADCP,ioos:station:wmo:42394:1,2017-05-04T18:30:00Z,28.1570,-89.2400,17.6,11111222 
ADCP,ioos:station:wmo:42394:1,2017-05-04T19:30:00Z,28.1570,-89.2400,18.2,11111222 
ADCP,ioos:station:wmo:42394:1,2017-05-04T20:30:00Z,28.1570,-89.2400,17.3,11111222 
ADCP,ioos:station:wmo:42394:1,2017-05-04T21:30:00Z,28.1570,-89.2400,14.6,11111222 
ADCP,ioos:station:wmo:42394:1,2017-05-04T22:30:00Z,28.1570,-89.2400,12.6,11111222 
ADCP,ioos:station:wmo:42394:1,2017-05-04T23:30:00Z,28.1570,-89.2400,12.8,11111222 
ADCP,ioos:station:wmo:42394:1,2017-05-05T00:30:00Z,28.1570,-89.2400,12.8,11111222 
ADCP,ioos:station:wmo:42394:1,2017-05-05T01:30:00Z,28.1570,-89.2400,11.1,11111222 
ADCP,ioos:station:wmo:42394:1,2017-05-05T02:30:00Z,28.1570,-89.2400,11.1,11111222 
ADCP,ioos:station:wmo:42394:1,2017-05-05T03:30:00Z,28.1570,-89.2400,10.2,11111222 
ADCP,ioos:station:wmo:42394:1,2017-05-05T04:30:00Z,28.1570,-89.2400,8.5,11111222 
ADCP,ioos:station:wmo:42394:1,2017-05-05T05:30:00Z,28.1570,-89.2400,9.2,11111222 
ADCP,ioos:station:wmo:42394:1,2017-05-05T06:30:00Z,28.1570,-89.2400,9.1,11111222 
ADCP,ioos:station:wmo:42394:1,2017-05-05T07:30:00Z,28.1570,-89.2400,8.3,11111222 
ADCP,ioos:station:wmo:42394:1,2017-05-05T08:30:00Z,28.1570,-89.2400,7.4,11111222 
ADCP,ioos:station:wmo:42394:1,2017-05-05T09:30:00Z,28.1570,-89.2400,8.0,11111222 
ADCP,ioos:station:wmo:42394:1,2017-05-05T10:30:00Z,28.1570,-89.2400,8.6,11111222 
ADCP,ioos:station:wmo:42394:1,2017-05-05T11:30:00Z,28.1570,-89.2400,8.6,11111222 
ADCP,ioos:station:wmo:42394:1,2017-05-05T12:30:00Z,28.1570,-89.2400,8.5,11111222 
ADCP,ioos:station:wmo:42394:1,2017-05-05T13:30:00Z,28.1570,-89.2400,8.8,11111222 
ADCP,ioos:station:wmo:42394:1,2017-05-05T14:30:00Z,28.1570,-89.2400,7.9,11111222 
ADCP,ioos:station:wmo:42394:1,2017-05-05T15:30:00Z,28.1570,-89.2400,6.7,11111222 
ADCP,ioos:station:wmo:42394:1,2017-05-05T16:30:00Z,28.1570,-89.2400,7.6,11111222 
ADCP,ioos:station:wmo:42394:1,2017-05-05T17:30:00Z,28.1570,-89.2400,9.4,11111222 
ADCP,ioos:station:wmo:42394:1,2017-05-05T18:30:00Z,28.1570,-89.2400,7.0,11111222 
ADCP,ioos:station:wmo:42394:1,2017-05-05T19:30:00Z,28.1570,-89.2400,6.4,11111222 
ADCP,ioos:station:wmo:42394:1,2017-05-05T20:30:00Z,28.1570,-89.2400,6.4,11111222 
ADCP,ioos:station:wmo:42394:1,2017-05-05T21:30:00Z,28.1570,-89.2400,8.4,11111222 
ADCP,ioos:station:wmo:42394:1,2017-05-05T22:30:00Z,28.1570,-89.2400,8.8,11111222 
ADCP,ioos:station:wmo:42394:1,2017-05-05T23:30:00Z,28.1570,-89.2400,9.1,11111222 
ADCP,ioos:station:wmo:42394:1,2017-05-06T00:30:00Z,28.1570,-89.2400,9.8,11111222 
ADCP,ioos:station:wmo:42394:1,2017-05-06T01:30:00Z,28.1570,-89.2400,8.9,11111222 
ADCP,ioos:station:wmo:42394:1,2017-05-06T02:30:00Z,28.1570,-89.2400,8.7,11111222 
ADCP,ioos:station:wmo:42394:1,2017-05-06T03:30:00Z,28.1570,-89.2400,7.8,11111222 
ADCP,ioos:station:wmo:42394:1,2017-05-06T04:30:00Z,28.1570,-89.2400,7.8,11111222 
ADCP,ioos:station:wmo:42394:1,2017-05-06T05:30:00Z,28.1570,-89.2400,7.5,11111222 
ADCP,ioos:station:wmo:42394:1,2017-05-06T06:30:00Z,28.1570,-89.2400,8.6,11111222 
ADCP,ioos:station:wmo:42394:1,2017-05-06T07:30:00Z,28.1570,-89.2400,8.4,11111222 
ADCP,ioos:station:wmo:42394:1,2017-05-06T08:30:00Z,28.1570,-89.2400,8.0,11111222 
ADCP,ioos:station:wmo:42394:1,2017-05-06T09:30:00Z,28.1570,-89.2400,8.4,11111222 
ADCP,ioos:station:wmo:42394:1,2017-05-06T10:30:00Z,28.1570,-89.2400,5.5,11111222 
ADCP,ioos:station:wmo:42394:1,2017-05-06T11:30:00Z,28.1570,-89.2400,7.6,11111222 
ADCP,ioos:station:wmo:42394:1,2017-05-06T12:30:00Z,28.1570,-89.2400,7.1,11111222 
ADCP,ioos:station:wmo:42394:1,2017-05-06T13:30:00Z,28.1570,-89.2400,7.4,11111222 
ADCP,ioos:station:wmo:42394:1,2017-05-06T14:30:00Z,28.1570,-89.2400,7.5,11111222 
ADCP,ioos:station:wmo:42394:1,2017-05-06T15:30:00Z,28.1570,-89.2400,7.2,11111222 
ADCP,ioos:station:wmo:42394:1,2017-05-06T16:30:00Z,28.1570,-89.2400,7.6,11111222 
ADCP,ioos:station:wmo:42394:1,2017-05-06T17:30:00Z,28.1570,-89.2400,8.5,11111222 
ADCP,ioos:station:wmo:42394:1,2017-05-06T18:30:00Z,28.1570,-89.2400,7.8,11111222 
ADCP,ioos:station:wmo:42394:1,2017-05-06T19:30:00Z,28.1570,-89.2400,8.5,11111222 
ADCP,ioos:station:wmo:42394:1,2017-05-06T20:30:00Z,28.1570,-89.2400,7.0,11111222 
ADCP,ioos:station:wmo:42394:1,2017-05-06T21:30:00Z,28.1570,-89.2400,7.4,11111222 
ADCP,ioos:station:wmo:42394:1,2017-05-06T22:30:00Z,28.1570,-89.2400,7.5,11111222 
ADCP,ioos:station:wmo:42394:1,2017-05-06T23:30:00Z,28.1570,-89.2400,8.8,11111222 
ADCP,ioos:station:wmo:42394:1,2017-05-07T00:30:00Z,28.1570,-89.2400,9.4,11111222 
ADCP,ioos:station:wmo:42394:1,2017-05-07T01:30:00Z,28.1570,-89.2400,10.8,11111222 
ADCP,ioos:station:wmo:42394:1,2017-05-07T02:30:00Z,28.1570,-89.2400,11.3,11111222 
ADCP,ioos:station:wmo:42394:1,2017-05-07T03:30:00Z,28.1570,-89.2400,11.8,11111222 
ADCP,ioos:station:wmo:42394:1,2017-05-07T04:30:00Z,28.1570,-89.2400,11.8,11111222 
ADCP,ioos:station:wmo:42394:1,2017-05-07T05:30:00Z,28.1570,-89.2400,11.2,11111222 
ADCP,ioos:station:wmo:42394:1,2017-05-07T06:30:00Z,28.1570,-89.2400,11.2,11111222 
ADCP,ioos:station:wmo:42394:1,2017-05-07T07:30:00Z,28.1570,-89.2400,10.7,11111222 
ADCP,ioos:station:wmo:42394:1,2017-05-07T08:30:00Z,28.1570,-89.2400,11.3,11111222 
ADCP,ioos:station:wmo:42394:1,2017-05-07T09:30:00Z,28.1570,-89.2400,12.0,11111222 
ADCP,ioos:station:wmo:42394:1,2017-05-07T10:30:00Z,28.1570,-89.2400,11.8,11111222 
ADCP,ioos:station:wmo:42394:1,2017-05-07T11:30:00Z,28.1570,-89.2400,11.9,11111222 
ADCP,ioos:station:wmo:42394:1,2017-05-07T12:30:00Z,28.1570,-89.2400,11.4,11111222 
ADCP,ioos:station:wmo:42394:1,2017-05-07T13:30:00Z,28.1570,-89.2400,11.8,11111222 
ADCP,ioos:station:wmo:42394:1,2017-05-07T14:30:00Z,28.1570,-89.2400,12.2,11111222 
ADCP,ioos:station:wmo:42394:1,2017-05-07T15:30:00Z,28.1570,-89.2400,12.3,11111222 
ADCP,ioos:station:wmo:42394:1,2017-05-07T16:30:00Z,28.1570,-89.2400,12.4,11111222 
ADCP,ioos:station:wmo:42394:1,2017-05-07T17:30:00Z,28.1570,-89.2400,12.7,11111222 
ADCP,ioos:station:wmo:42394:1,2017-05-07T18:30:00Z,28.1570,-89.2400,12.5,11111222 
ADCP,ioos:station:wmo:42394:1,2017-05-07T19:30:00Z,28.1570,-89.2400,12.5,11111222 
ADCP,ioos:station:wmo:42394:1,2017-05-07T20:30:00Z,28.1570,-89.2400,12.6,11111222 
ADCP,ioos:station:wmo:42394:1,2017-05-07T21:30:00Z,28.1570,-89.2400,13.1,11111222 
ADCP,ioos:station:wmo:42394:1,2017-05-07T22:30:00Z,28.1570,-89.2400,12.8,11111222 
ADCP,ioos:station:wmo:42394:1,2017-05-07T23:30:00Z,28.1570,-89.2400,13.1,11111222 
ADCP,ioos:station:wmo:42394:1,2017-05-08T00:30:00Z,28.1570,-89.2400,13.3,11111222 
ADCP,ioos:station:wmo:42394:1,2017-05-08T01:30:00Z,28.1570,-89.2400,13.5,11111222 
ADCP,ioos:station:wmo:42394:1,2017-05-08T02:30:00Z,28.1570,-89.2400,13.1,11111222 
ADCP,ioos:station:wmo:42394:1,2017-05-08T03:30:00Z,28.1570,-89.2400,13.2,11111222 
ADCP,ioos:station:wmo:42394:1,2017-05-08T04:30:00Z,28.1570,-89.2400,13.3,11111222 
ADCP,ioos:station:wmo:42394:1,2017-05-08T05:30:00Z,28.1570,-89.2400,13.4,11111222 
ADCP,ioos:station:wmo:42394:1,2017-05-08T06:30:00Z,28.1570,-89.2400,13.9,11111222 
ADCP,ioos:station:wmo:42394:1,2017-05-08T07:30:00Z,28.1570,-89.2400,13.8,11111222 
ADCP,ioos:station:wmo:42394:1,2017-05-08T08:30:00Z,28.1570,-89.2400,13.6,11111222 
ADCP,ioos:station:wmo:42394:1,2017-05-08T09:30:00Z,28.1570,-89.2400,13.6,11111222 
ADCP,ioos:station:wmo:42394:1,2017-05-08T10:30:00Z,28.1570,-89.2400,13.1,11111222 
ADCP,ioos:station:wmo:42394:1,2017-05-08T11:30:00Z,28.1570,-89.2400,13.4,11111222 
ADCP,ioos:station:wmo:42394:1,2017-05-08T12:30:00Z,28.1570,-89.2400,13.2,11111222 
ADCP,ioos:station:wmo:42394:1,2017-05-08T13:30:00Z,28.1570,-89.2400,13.7,11111222 
ADCP,ioos:station:wmo:42394:1,2017-05-08T14:30:00Z,28.1570,-89.2400,13.7,11111222 
ADCP,ioos:station:wmo:42394:1,2017-05-08T15:30:00Z,28.1570,-89.2400,14.4,11111222 
ADCP,ioos:station:wmo:42394:1,2017-05-08T16:30:00Z,28.1570,-89.2400,14.2,11111222 
ADCP,ioos:station:wmo:42394:1,2017-05-08T17:30:00Z,28.1570,-89.2400,14.8,11111222 
ADCP,ioos:station:wmo:42394:1,2017-05-08T18:30:00Z,28.1570,-89.2400,15.6,11111222 
ADCP,ioos:station:wmo:42394:1,2017-05-08T19:30:00Z,28.1570,-89.2400,16.1,11111222 
ADCP,ioos:station:wmo:42394:1,2017-05-08T20:30:00Z,28.1570,-89.2400,16.1,11111222 
ADCP,ioos:station:wmo:42394:1,2017-05-08T21:30:00Z,28.1570,-89.2400,16.0,11111222 
ADCP,ioos:station:wmo:42394:1,2017-05-08T22:30:00Z,28.1570,-89.2400,16.1,11111222 
ADCP,ioos:station:wmo:42394:1,2017-05-08T23:30:00Z,28.1570,-89.2400,16.1,11111222 
ADCP,ioos:station:wmo:42394:1,2017-05-09T00:30:00Z,28.1570,-89.2400,15.8,11111222 
ADCP,ioos:station:wmo:42394:1,2017-05-09T01:30:00Z,28.1570,-89.2400,15.8,11111222 
ADCP,ioos:station:wmo:42394:1,2017-05-09T02:30:00Z,28.1570,-89.2400,15.9,11111222 
ADCP,ioos:station:wmo:42394:1,2017-05-09T03:30:00Z,28.1570,-89.2400,15.2,11111222 
ADCP,ioos:station:wmo:42394:1,2017-05-09T04:30:00Z,28.1570,-89.2400,16.0,11111222 
ADCP,ioos:station:wmo:42394:1,2017-05-09T05:30:00Z,28.1570,-89.2400,15.3,11111222 
ADCP,ioos:station:wmo:42394:1,2017-05-09T06:30:00Z,28.1570,-89.2400,16.1,11111222 
ADCP,ioos:station:wmo:42394:1,2017-05-09T07:30:00Z,28.1570,-89.2400,15.4,11111222 
ADCP,ioos:station:wmo:42394:1,2017-05-09T08:30:00Z,28.1570,-89.2400,15.9,11111222 
ADCP,ioos:station:wmo:42394:1,2017-05-09T09:30:00Z,28.1570,-89.2400,16.0,11111222 
ADCP,ioos:station:wmo:42394:1,2017-05-09T10:30:00Z,28.1570,-89.2400,16.5,11111222 
ADCP,ioos:station:wmo:42394:1,2017-05-09T11:30:00Z,28.1570,-89.2400,16.5,11111222 
ADCP,ioos:station:wmo:42394:1,2017-05-09T12:30:00Z,28.1570,-89.2400,16.7,11111222 
ADCP,ioos:station:wmo:42394:1,2017-05-09T13:30:00Z,28.1570,-89.2400,17.0,11111222 
ADCP,ioos:station:wmo:42394:1,2017-05-09T14:30:00Z,28.1570,-89.2400,16.7,11111222 
ADCP,ioos:station:wmo:42394:1,2017-05-09T15:30:00Z,28.1570,-89.2400,17.2,11111222 
ADCP,ioos:station:wmo:42394:1,2017-05-09T16:30:00Z,28.1570,-89.2400,17.6,11111222 
ADCP,ioos:station:wmo:42394:1,2017-05-09T17:30:00Z,28.1570,-89.2400,17.8,11111222 
ADCP,ioos:station:wmo:42394:1,2017-05-09T18:30:00Z,28.1570,-89.2400,17.5,11111222 
ADCP,ioos:station:wmo:42394:1,2017-05-09T19:30:00Z,28.1570,-89.2400,17.3,11111222 
ADCP,ioos:station:wmo:42394:1,2017-05-09T20:30:00Z,28.1570,-89.2400,17.2,11111222 
ADCP,ioos:station:wmo:42394:1,2017-05-09T21:30:00Z,28.1570,-89.2400,17.8,11111222 
ADCP,ioos:station:wmo:42394:1,2017-05-09T22:30:00Z,28.1570,-89.2400,18.0,11111222 
ADCP,ioos:station:wmo:42394:1,2017-05-09T23:30:00Z,28.1570,-89.2400,18.0,11111222 
ADCP,ioos:station:wmo:42394:1,2017-05-10T00:30:00Z,28.1570,-89.2400,16.6,11111222 
ADCP,ioos:station:wmo:42394:1,2017-05-10T01:30:00Z,28.1570,-89.2400,16.8,11111222 
ADCP,ioos:station:wmo:42394:1,2017-05-10T02:30:00Z,28.1570,-89.2400,16.9,11111222 
ADCP,ioos:station:wmo:42394:1,2017-05-10T03:30:00Z,28.1570,-89.2400,17.4,11111222 
ADCP,ioos:station:wmo:42394:1,2017-05-10T04:30:00Z,28.1570,-89.2400,17.2,11111222 
ADCP,ioos:station:wmo:42394:1,2017-05-10T05:30:00Z,28.1570,-89.2400,17.3,11111222 
ADCP,ioos:station:wmo:42394:1,2017-05-10T06:30:00Z,28.1570,-89.2400,17.8,11111222 
ADCP,ioos:station:wmo:42394:1,2017-05-10T07:30:00Z,28.1570,-89.2400,17.7,11111222 
ADCP,ioos:station:wmo:42394:1,2017-05-10T08:30:00Z,28.1570,-89.2400,18.3,11111222 
ADCP,ioos:station:wmo:42394:1,2017-05-10T09:30:00Z,28.1570,-89.2400,17.9,11111222 
ADCP,ioos:station:wmo:42394:1,2017-05-10T10:30:00Z,28.1570,-89.2400,18.0,11111222 
ADCP,ioos:station:wmo:42394:1,2017-05-10T11:30:00Z,28.1570,-89.2400,17.9,11111222 
ADCP,ioos:station:wmo:42394:1,2017-05-10T12:30:00Z,28.1570,-89.2400,18.0,11111222 
ADCP,ioos:station:wmo:42394:1,2017-05-10T14:30:00Z,28.1570,-89.2400,17.6,11111222 
ADCP,ioos:station:wmo:42394:1,2017-05-10T16:30:00Z,28.1570,-89.2400,17.9,11111222 
ADCP,ioos:station:wmo:42394:1,2017-05-10T17:30:00Z,28.1570,-89.2400,17.8,11111222 
ADCP,ioos:station:wmo:42394:1,2017-05-10T18:30:00Z,28.1570,-89.2400,18.1,11111222 
ADCP,ioos:station:wmo:42394:1,2017-05-10T19:30:00Z,28.1570,-89.2400,18.9,11111222 
ADCP,ioos:station:wmo:42394:1,2017-05-10T20:30:00Z,28.1570,-89.2400,19.2,11111222 
ADCP,ioos:station:wmo:42394:1,2017-05-10T21:30:00Z,28.1570,-89.2400,19.3,11111222 
ADCP,ioos:station:wmo:42394:1,2017-05-10T22:30:00Z,28.1570,-89.2400,19.9,11111222 
ADCP,ioos:station:wmo:42394:1,2017-05-10T23:30:00Z,28.1570,-89.2400,19.9,11111222 
ADCP,ioos:station:wmo:42394:1,2017-05-11T00:30:00Z,28.1570,-89.2400,20.5,11111222 
ADCP,ioos:station:wmo:42394:1,2017-05-11T01:30:00Z,28.1570,-89.2400,20.1,11111222 
ADCP,ioos:station:wmo:42394:1,2017-05-11T02:30:00Z,28.1570,-89.2400,20.8,11111222 
ADCP,ioos:station:wmo:42394:1,2017-05-11T03:30:00Z,28.1570,-89.2400,20.0,11111222 
ADCP,ioos:station:wmo:42394:1,2017-05-11T04:30:00Z,28.1570,-89.2400,20.2,11111222 
ADCP,ioos:station:wmo:42394:1,2017-05-11T05:30:00Z,28.1570,-89.2400,20.1,11111222 
ADCP,ioos:station:wmo:42394:1,2017-05-11T06:30:00Z,28.1570,-89.2400,20.2,11111222 
ADCP,ioos:station:wmo:42394:1,2017-05-11T07:30:00Z,28.1570,-89.2400,20.2,11111222 
ADCP,ioos:station:wmo:42394:1,2017-05-11T08:30:00Z,28.1570,-89.2400,19.8,11111222 
ADCP,ioos:station:wmo:42394:1,2017-05-11T09:30:00Z,28.1570,-89.2400,19.4,11111222 
ADCP,ioos:station:wmo:42394:1,2017-05-11T10:30:00Z,28.1570,-89.2400,19.3,11111222 
ADCP,ioos:station:wmo:42394:1,2017-05-11T11:30:00Z,28.1570,-89.2400,19.6,11111222 
ADCP,ioos:station:wmo:42394:1,2017-05-11T12:30:00Z,28.1570,-89.2400,19.7,11111222 
ADCP,ioos:station:wmo:42394:1,2017-05-11T16:30:00Z,28.1570,-89.2400,18.8,11111222 
ADCP,ioos:station:wmo:42394:1,2017-05-11T17:30:00Z,28.1570,-89.2400,18.7,11111222 
ADCP,ioos:station:wmo:42394:1,2017-05-11T18:30:00Z,28.1570,-89.2400,18.6,11111222 
ADCP,ioos:station:wmo:42394:1,2017-05-11T19:30:00Z,28.1570,-89.2400,19.3,11111222 
ADCP,ioos:station:wmo:42394:1,2017-05-11T20:30:00Z,28.1570,-89.2400,19.2,11111222 
ADCP,ioos:station:wmo:42394:1,2017-05-11T21:30:00Z,28.1570,-89.2400,19.2,11111222 
ADCP,ioos:station:wmo:42394:1,2017-05-11T22:30:00Z,28.1570,-89.2400,19.4,11111222 
ADCP,ioos:station:wmo:42394:1,2017-05-11T23:30:00Z,28.1570,-89.2400,20.9,11111222 
ADCP,ioos:station:wmo:42394:1,2017-05-12T00:30:00Z,28.1570,-89.2400,20.3,11111222 
ADCP,ioos:station:wmo:42394:1,2017-05-12T01:30:00Z,28.1570,-89.2400,19.8,11111222 
ADCP,ioos:station:wmo:42394:1,2017-05-12T02:30:00Z,28.1570,-89.2400,19.8,11111222 
ADCP,ioos:station:wmo:42394:1,2017-05-12T03:30:00Z,28.1570,-89.2400,20.5,11111222 
ADCP,ioos:station:wmo:42394:1,2017-05-12T04:30:00Z,28.1570,-89.2400,21.2,11111222 
ADCP,ioos:station:wmo:42394:1,2017-05-12T05:30:00Z,28.1570,-89.2400,21.4,11111222 
ADCP,ioos:station:wmo:42394:1,2017-05-12T06:30:00Z,28.1570,-89.2400,21.3,11111222 
ADCP,ioos:station:wmo:42394:1,2017-05-12T07:30:00Z,28.1570,-89.2400,21.9,11111222 
ADCP,ioos:station:wmo:42394:1,2017-05-12T08:30:00Z,28.1570,-89.2400,22.1,11111222 
ADCP,ioos:station:wmo:42394:1,2017-05-12T09:30:00Z,28.1570,-89.2400,22.1,11111222 
ADCP,ioos:station:wmo:42394:1,2017-05-12T10:30:00Z,28.1570,-89.2400,21.6,11111222 
ADCP,ioos:station:wmo:42394:1,2017-05-12T11:30:00Z,28.1570,-89.2400,21.2,11111222 
ADCP,ioos:station:wmo:42394:1,2017-05-12T12:30:00Z,28.1570,-89.2400,21.7,11111222 
ADCP,ioos:station:wmo:42394:1,2017-05-12T13:30:00Z,28.1570,-89.2400,21.5,11111222 
ADCP,ioos:station:wmo:42394:1,2017-05-12T14:30:00Z,28.1570,-89.2400,21.4,11111222 
ADCP,ioos:station:wmo:42394:1,2017-05-12T15:30:00Z,28.1570,-89.2400,21.3,11111222 
ADCP,ioos:station:wmo:42394:1,2017-05-12T16:30:00Z,28.1570,-89.2400,21.8,11111222 
ADCP,ioos:station:wmo:42394:1,2017-05-12T17:30:00Z,28.1570,-89.2400,21.6,11111222 
ADCP,ioos:station:wmo:42394:1,2017-05-12T18:30:00Z,28.1570,-89.2400,22.1,11111222 
ADCP,ioos:station:wmo:42394:1,2017-05-12T19:30:00Z,28.1570,-89.2400,22.4,11111222 
ADCP,ioos:station:wmo:42394:1,2017-05-12T20:30:00Z,28.1570,-89.2400,22.7,11111222 
ADCP,ioos:station:wmo:42394:1,2017-05-12T21:30:00Z,28.1570,-89.2400,23.2,11111222 
ADCP,ioos:station:wmo:42394:1,2017-05-12T22:30:00Z,28.1570,-89.2400,23.5,11111222 
ADCP,ioos:station:wmo:42394:1,2017-05-12T23:30:00Z,28.1570,-89.2400,20.0,11111222 
ADCP,ioos:station:wmo:42394:1,2017-05-13T00:30:00Z,28.1570,-89.2400,21.3,11111222 
ADCP,ioos:station:wmo:42394:1,2017-05-13T01:30:00Z,28.1570,-89.2400,24.2,11111222 
ADCP,ioos:station:wmo:42394:1,2017-05-13T02:30:00Z,28.1570,-89.2400,24.1,11111222 
ADCP,ioos:station:wmo:42394:1,2017-05-13T03:30:00Z,28.1570,-89.2400,23.6,11111222 
ADCP,ioos:station:wmo:42394:1,2017-05-13T04:30:00Z,28.1570,-89.2400,23.5,11111222 